Back to catalog

NOAA 16 DEB

AliveSSO
NORAD 41054·DEBRIS·🇺🇸 United States

Launched Sep 21, 2000 from Vandenberg Space Force Base

Loading…

Next Passes (next 24 hours)

TLE

FreshSource: Space-Track

Epoch: Sep 14, 2026, 09:55 UTC

1 41054U 00055M   26257.41387134  .00000634  00000-0  23999-3 0  9995
2 41054  98.9905 147.8835 0063185 232.4667 127.0764 14.33740308563256

Track NOAA 16 DEB in real time with AllMySat

Download on the App Store